Weather History for Elkins, WV

Change the Weather History Date:

Monday, December 31, 2012

  Actual Average Record
Temperature  
Mean Temperature 21 °F 30 °F  
Max Temperature 37 °F 39 °F 70 °F (1972)
Min Temperature 5 °F 20 °F -5 °F (1983)
Degree Days  
Heating Degree Days 44 35  
Month to date heating degree days 847 1008  
Since 1 July heating degree days 2262 2291  
Cooling Degree Days 0 0  
Month to date cooling degree days 0 0  
Year to date cooling degree days 675 475  
Moisture  
Dew Point 12 °F    
Average Humidity 66    
Maximum Humidity 92    
Minimum Humidity 40    
Precipitation  
Precipitation T in 0.10 in 1.40 in (1923)
Month to date precipitation 4.34 3.26  
Year to date precipitation 46.45 45.93  
Snow  
Snow 0.00 in - - ()
Month to date snowfall 9.1  
Since 1 September snowfall 27.5  
Snow Depth 4.00 in    
Sea Level Pressure  
Sea Level Pressure 30.28 in    
Wind  
Wind Speed 2 mph (SW)    
Max Wind Speed 15 mph    
Max Gust Speed 23 mph    
Visibility 9 miles    
Events      
T = Trace of Precipitation, MM = Missing Value Source: NWS Daily Summary

Daily Weather History Graph

Daily Weather History Graph

Search for Another Location

Airport:

Trip Planner

Search our weather history database for the weather conditions in past years. The results will help you decide how hot, cold, wet, or windy it might be!

Date:

Astronomy

Dec. 31, 2012 Rise Set
Actual Time 7:37 AM EST 5:07 PM EST
Civil Twilight 7:08 AM EST 5:37 PM EST
Nautical Twilight 6:34 AM EST 6:10 PM EST
Astronomical Twilight 6:02 AM EST 6:43 PM EST
Moon 8:34 PM EST (12/31) 9:20 AM EST (12/31)
Length of Visible Light 10h 29m
Length of Day
9h 29m
Waning Gibbous, 90% of the Moon is Illuminated
Dec 31
Waning Gibbous
Jan 4
Last Quarter
Jan 11
New
Jan 18
First Quarter
Jan 26
Full

Hourly Weather History & Observations

Time (EST) Temp. Windchill Dew Point Humidity Pressure Visibility Wind Dir Wind Speed Gust Speed Precip Events Conditions
12:51 AM 10.4 °F - 6.8 °F 85% 30.31 in 7.0 mi Calm Calm - N/A   Clear
1:51 AM 10.0 °F - 7.0 °F 87% 30.43 in 7.0 mi Calm Calm - N/A   Clear
2:51 AM 9.0 °F - 6.1 °F 88% 30.40 in 8.0 mi Calm Calm - N/A   Clear
3:51 AM 8.1 °F - 3.9 °F 83% 30.41 in 8.0 mi Calm Calm - N/A   Clear
4:51 AM 6.1 °F - 1.9 °F 83% 30.38 in 8.0 mi Calm Calm - N/A   Clear
5:51 AM 7.0 °F - 3.0 °F 84% 30.36 in 7.0 mi Calm Calm - N/A   Clear
6:51 AM 8.1 °F - 3.9 °F 83% 30.38 in 9.0 mi Calm Calm - N/A   Clear
7:51 AM 12.0 °F - 8.1 °F 84% 30.35 in 7.0 mi Calm Calm - N/A   Clear
8:51 AM 16.0 °F - 14.0 °F 92% 30.34 in 9.0 mi Calm Calm - N/A   Clear
9:51 AM 19.0 °F - 15.1 °F 85% 30.35 in 9.0 mi Calm Calm - N/A   Clear
10:51 AM 23.0 °F - 17.1 °F 78% 30.32 in 9.0 mi Calm Calm - N/A   Clear
11:51 AM 34.0 °F 28.0 °F 15.1 °F 46% 30.29 in 10.0 mi South 6.9 mph - N/A   Clear
12:51 PM 36.0 °F - 14.0 °F 41% 30.26 in 10.0 mi Calm Calm - N/A   Scattered Clouds
1:51 PM 36.0 °F 32.1 °F 15.1 °F 43% 30.22 in 10.0 mi Variable 4.6 mph - N/A   Overcast
2:51 PM 35.1 °F 32.2 °F 19.0 °F 52% 30.22 in 10.0 mi SW 3.5 mph - 0.00 in   Scattered Clouds
3:51 PM 35.1 °F 28.6 °F 15.1 °F 44% 30.22 in 10.0 mi SW 8.1 mph - N/A   Overcast
4:51 PM 33.8 °F - 17.6 °F 52% 30.07 in 10.0 mi Calm Calm - N/A   Mostly Cloudy
5:51 PM 33.1 °F 30.0 °F 18.0 °F 54% 30.19 in 10.0 mi WNW 3.5 mph - N/A   Mostly Cloudy
6:51 PM 34.0 °F 28.0 °F 16.0 °F 48% 30.18 in 10.0 mi West 6.9 mph - N/A   Clear
7:51 PM 34.0 °F 28.8 °F 17.1 °F 50% 30.16 in 10.0 mi SSW 5.8 mph 16.1 mph N/A   Overcast
8:51 PM 34.0 °F 28.8 °F 16.0 °F 48% 30.16 in 10.0 mi Variable 5.8 mph - N/A   Overcast
9:51 PM 35.1 °F 31.0 °F 16.0 °F 46% 30.15 in 10.0 mi WSW 4.6 mph - N/A   Overcast
10:51 PM 35.1 °F 31.0 °F 17.1 °F 48% 30.13 in 10.0 mi WSW 4.6 mph - N/A   Overcast
11:51 PM 35.1 °F 31.0 °F 18.0 °F 50% 30.11 in 10.0 mi Variable 4.6 mph - N/A   Overcast